Time,TemperatureF,DewpointF,PressureIn,WindDirection,WindDirectionDegrees,WindSpeedMPH,WindSpeedGustMPH,Humidity,HourlyPrecipIn,Conditions,Clouds,dailyrainin,SoftwareType,DateUTC
2013-07-29 00:32:00,58.0,53.0,-100.00,NNW,340,12.0,17.0,83,0.00,,,-99.99,,2013-07-29 00:32:00,
2013-07-29 01:02:00,57.0,51.0,-100.00,NNW,340,11.0,14.0,81,0.00,,,-99.99,,2013-07-29 01:02:00,
2013-07-29 01:43:00,56.0,52.0,-100.00,NNW,340,7.0,9.0,86,0.00,,,-99.99,,2013-07-29 01:43:00,
2013-07-29 02:04:00,54.0,52.0,-100.00,NNW,343,7.0,9.0,94,0.00,,,-99.99,,2013-07-29 02:04:00,
2013-07-29 02:45:00,52.0,51.0,-100.00,East,89,4.0,7.0,97,0.00,,,-99.99,,2013-07-29 02:45:00,
2013-07-29 04:02:00,52.0,52.0,-100.00,SSE,160,12.0,16.0,98,0.00,,,-99.99,,2013-07-29 04:02:00,
2013-07-29 04:43:00,52.0,52.0,-100.00,SSE,164,12.0,16.0,99,0.00,,,-99.99,,2013-07-29 04:43:00,
2013-07-29 05:02:00,52.0,52.0,-100.00,SSE,168,10.0,16.0,99,0.00,,,-99.99,,2013-07-29 05:02:00,
2013-07-29 05:42:00,52.0,52.0,-100.00,South,175,11.0,16.0,99,0.00,,,-99.99,,2013-07-29 05:42:00,
2013-07-29 06:02:00,52.0,52.0,-100.00,South,174,9.0,12.0,99,0.00,,,-99.99,,2013-07-29 06:02:00,
2013-07-29 06:43:00,52.0,51.0,-100.00,South,188,6.0,9.0,99,0.00,,,-99.99,,2013-07-29 06:43:00,
2013-07-29 07:33:00,51.0,50.0,-100.00,WSW,240,5.0,7.0,99,0.00,,,-99.99,,2013-07-29 07:33:00,
2013-07-29 07:43:00,50.0,49.0,-100.00,West,265,5.0,6.0,99,0.00,,,-99.99,,2013-07-29 07:43:00,
2013-07-29 08:02:00,53.0,47.0,-100.00,WSW,251,7.0,9.0,80,0.00,,,-99.99,,2013-07-29 08:02:00,
2013-07-29 08:42:00,56.0,45.0,-100.00,WSW,247,11.0,15.0,66,0.00,,,-99.99,,2013-07-29 08:42:00,
2013-07-29 08:52:00,55.0,44.0,-100.00,WSW,244,10.0,13.0,66,0.00,,,-99.99,,2013-07-29 08:52:00,
2013-07-29 09:02:00,56.0,44.0,-100.00,WSW,241,11.0,16.0,65,0.00,,,-99.99,,2013-07-29 09:02:00,
2013-07-29 09:22:00,56.0,44.0,-100.00,WSW,257,11.0,14.0,64,0.00,,,-99.99,,2013-07-29 09:22:00,
2013-07-29 09:43:00,55.0,44.0,-100.00,WSW,257,11.0,14.0,66,0.00,,,-99.99,,2013-07-29 09:43:00,
2013-07-29 10:02:00,54.0,44.0,-100.00,West,268,11.0,16.0,66,0.00,,,-99.99,,2013-07-29 10:02:00,
2013-07-29 10:13:00,54.0,43.0,-100.00,West,263,12.0,17.0,66,0.00,,,-99.99,,2013-07-29 10:13:00,
2013-07-29 10:46:00,54.0,43.0,-100.00,WSW,256,15.0,19.0,66,0.00,,,-99.99,,2013-07-29 10:46:00,
2013-07-29 11:03:00,54.0,43.0,-100.00,WSW,256,15.0,21.0,65,0.00,,,-99.99,,2013-07-29 11:03:00,
2013-07-29 11:44:00,54.0,43.0,-100.00,WSW,253,16.0,21.0,65,0.00,,,-99.99,,2013-07-29 11:44:00,
2013-07-29 12:44:00,54.0,43.0,-100.00,WSW,254,16.0,20.0,66,0.00,,,-99.99,,2013-07-29 12:44:00,
2013-07-29 13:03:00,54.0,43.0,-100.00,WSW,253,18.0,24.0,66,0.00,,,-99.99,,2013-07-29 13:03:00,
2013-07-29 13:43:00,56.0,43.0,-100.00,WSW,253,20.0,26.0,61,0.00,,,-99.99,,2013-07-29 13:43:00,
2013-07-29 14:33:00,55.0,43.0,-100.00,West,265,17.0,22.0,64,0.00,,,-99.99,,2013-07-29 14:33:00,
2013-07-29 14:43:00,55.0,44.0,-100.00,West,265,17.0,22.0,65,0.00,,,-99.99,,2013-07-29 14:43:00,
2013-07-29 14:54:00,55.0,42.0,-100.00,West,265,16.0,21.0,62,0.00,,,-99.99,,2013-07-29 14:54:00,
2013-07-29 15:36:00,58.0,44.0,-100.00,WSW,254,20.0,26.0,59,0.00,,,-99.99,,2013-07-29 15:36:00,
2013-07-29 15:44:00,57.0,44.0,-100.00,WNW,296,17.0,22.0,62,0.00,,,-99.99,,2013-07-29 15:44:00,
2013-07-29 16:44:00,57.0,44.0,-100.00,West,263,16.0,21.0,62,0.00,,,-99.99,,2013-07-29 16:44:00,
2013-07-29 17:37:00,58.0,44.0,-100.00,West,271,11.0,15.0,58,0.00,,,-99.99,,2013-07-29 17:37:00,
2013-07-29 17:43:00,58.0,43.0,-100.00,NW,304,10.0,15.0,57,0.00,,,-99.99,,2013-07-29 17:43:00,
2013-07-29 18:34:00,59.0,40.0,-100.00,NW,325,11.0,16.0,50,0.00,,,-99.99,,2013-07-29 18:34:00,
2013-07-29 18:43:00,59.0,42.0,-100.00,NW,325,10.0,16.0,52,0.00,,,-99.99,,2013-07-29 18:43:00,
2013-07-29 19:44:00,59.0,42.0,-100.00,NW,325,10.0,14.0,53,0.00,,,-99.99,,2013-07-29 19:44:00,
2013-07-29 21:45:00,64.0,35.0,-100.00,NW,325,6.0,17.0,34,0.00,,,-99.99,,2013-07-29 21:45:00,
2013-07-29 22:43:00,59.0,40.0,-100.00,NNW,342,4.0,9.0,50,0.00,,,-99.99,,2013-07-29 22:43:00,
2013-07-29 23:04:00,58.0,39.0,-100.00,NNW,342,11.0,20.0,49,0.00,,,-99.99,,2013-07-29 23:04:00,
2013-07-29 23:34:00,56.0,40.0,-100.00,NNW,342,13.0,19.0,54,0.00,,,-99.99,,2013-07-29 23:34:00,
2013-07-29 23:44:00,56.0,41.0,-100.00,NNW,342,14.0,19.0,57,0.00,,,-99.99,,2013-07-29 23:44:00,